Weather Roundup
Issued by NWS Chicago, IL

Home | Current Version | Previous Version | Text Only | Print | Product List | Glossary On
Versions: 1 2 3 4 5 6 7 8 9 10 11 12 13 14 15 16 17 18 19 20 21 22 23 24 25 26 27 28 29 30 31 32 33 34 35 36 37 38 39 40 41 42 43 44 45 46 47 48 49 50
000
NZUS59 KLOT 260510
HRRLOT

CHICAGO AREA WEATHER ROUNDUP
NATIONAL WEATHER SERVICE CHICAGO/ROMEOVILLE IL
1100 PM CST THU DEC 25 2014

NOTE: "FAIR" INDICATES FEW OR NO CLOUDS BELOW 12,000 FEET WITH NO
SIGNIFICANT WEATHER AND/OR OBSTRUCTIONS TO VISIBILITY.

* THESE STATIONS ARE NOT UNDER NWS QUALITY CONTROL. THEY ALSO MAY NOT
  REPORT WEATHER SUCH AS PRECIPITATION OR FOG.

ILZ005-006-012>014-019>023-260600-
NORTHEAST ILLINOIS

CITY           SKY/WX    TMP DP  RH WIND       PRES   REMARKS
OHARE          MOCLDY    39  32  76 S14       30.01R
MIDWAY         MOCLDY    41  33  73 S13       30.03R
AURORA         MOCLDY    37  31  78 S9        30.01R
LANSING*       MOCLDY    36  32  87 S10       30.04S
JOLIET*        MOCLDY    38  33  81 S12G17    30.03R
WAUKEGAN       CLOUDY    40  33  76 S18       29.99R
DUPAGE AIRPORT CLOUDY    39  33  79 S14       30.01R
WHEELING       CLOUDY    39  33  79 S12       30.03R
KANKAKEE*      PTCLDY    37  33  88 S12G18    30.05R
MORRIS*        MOCLDY    36  34  94 S8        30.01S
LEWIS AIRPORT* MOCLDY    37  33  87 S12       30.03R
NORTHERLY IS     N/A     41  32  70 S16         N/A
$$

WIZ051-052-058>065-066-070>072-260600-
SOUTHEAST WISCONSIN

CITY           SKY/WX    TMP DP  RH WIND       PRES   REMARKS
MILWAUKEE      CLOUDY    40  33  76 SW13      29.98R
KENOSHA*       CLOUDY    41  34  76 SW14G21   29.98S
RACINE*        CLOUDY    40  33  76 S12       30.01R
BURLINGTON     CLOUDY    37  32  82 S10       29.97S
WAUKESHA       CLOUDY    36  32  87 S9        29.98R
WEST BEND      CLOUDY    37  32  81 S7        29.96R
$$

INZ001>003-010>013-019-020-260600-
NORTHWEST INDIANA

CITY           SKY/WX    TMP DP  RH WIND       PRES   REMARKS
GARY*          MOCLDY    40  31  70 S9G18     30.05S
MICHIGAN CITY* NOT AVBL
RENSSELAER*    NOT AVBL
VALPARAISO     CLOUDY    35  31  85 S9        30.06R WCI  28
$$

LMZ740>746-260600-
SOUTHERN LAKE MICHIGAN

STATION/POSITION TIME  SKY/WX   TEMP WIND        PRES    VSBY
                                AIR  DIR/SP/G
                 (UTC)          (F)  (DEG/KT/KT) (MB)    (MI)
HARRISON CRIB    0500            40  190/ 21/ 24   N/A
BURNHAM HARBOR   0500            41  200/ 16/ 19   N/A
CALUMET HARBOR   0500            39  180/ 13/ 17 1015.7R
BURNS HARBOR     NOT AVBL
MICHIGAN CITY    0500            38  150/ 15/ 19   N/A
$$

ABBREVIATIONS USED IN REMARKS
   TC - TEMPERATURE IN CELSIUS
  WCI - WIND CHILL INDEX
   HX - HEAT INDEX
  VSB - VISIBILITY
$$


USA.gov is the U.S. government's official web portal to all federal, state and local government web resources and services.